Location: Arrodets-la-Barthe
(43.0306°N, 0.2829°E)
Time: 21:49:41
(UTC+00:00)

CUTE-I - Visible Passes

Search period start: 31 March 2023 00:00
Search period end: 10 April 2023 00:00
Orbit: 809 x 823 km, 98.7° (Epoch: 30 March)

Date Brightness Start Highest point End Pass type
(mag) Time Alt. Az. Time Alt. Az. Time Alt. Az.
31 Mar ? 05:05:42 10° NE 05:09:07 17° E 05:12:32 10° SE visible
01 Apr ? 04:46:23 10° E 04:46:55 10° E 04:47:28 10° E visible
02 Apr ? 19:07:29 10° WSW 19:08:57 11° W 19:10:26 10° WNW visible
05 Apr ? 04:56:48 10° ENE 04:59:29 14° E 05:02:09 10° ESE visible
07 Apr ? 18:56:35 10° WSW 18:59:16 14° W 19:01:59 10° WNW visible
